Погода в Варкаусе

Финляндия     62°18′44″N   27°52′46″E
темп.,
°C
ветер,
м/с
пор.,
м/с
влажн.,
%
обл.,
%
осадки,
мм/ч
давл.,
гПа
погр.,
м
5 декабря, вс
вс523:00−14св410805 0.0 1019568
02:00−14св39845 0.0 1020487
05:00−15св39865 0.0 1022472
08:00−15св39885 0.0 1023409
11:00−15св39856 0.0 1025479
14:00−15св36866 0.0 1025349
17:00−16всв27927 0.0 1026286
20:00−16всв27895 0.0 1028234
6 декабря, пн
пн623:00−16св25915 0.0 1028123
02:00−16ссв24935 0.0 102990
05:00−14ссв259869 0.0 1027133
08:00−12св289696 0.1 1027227
11:00−11всв399293 0.1 1026363
14:00−11в399170 0.1 1025496
17:00−12в399258 0.0 1024400
20:00−13в37916 0.0 1024238
7 декабря, вт
вт723:00−14всв37926 0.0 1023224
02:00−15всв26936 0.0 1022222
05:00−15св25957 0.0 1021160
08:00−15св259565 0.0 1020182
11:00−14ссв259569 0.0 1020199
14:00−13с369477 0.1 1018240
17:00−13с369583 0.1 1018239
20:00−14ссз369681 0.1 1018193
8 декабря, ср
ср823:00−14ссз369670 0.1 1017187
02:00−14ссз269669 0.1 1017163
05:00−15сз269868 0.0 1017147
08:00−15сз269869 0.0 1018152
11:00−15сз259545 0.0 1019151
14:00−14сз269633 0.0 1020164
17:00−15зсз269749 0.0 1021144
20:00−15сз279748 0.0 1022159
9 декабря, чт
чт923:00−16зсз269752 0.0 1023132
02:00−15сз2797100 0.0 1024148
05:00−16сз2597100 0.0 1024110
08:00−16зсз2497100 0.0 102485
11:00−15сз149552 0.0 102585
14:00−15зсз119856 0.0 102515
17:00−16сз119864 0.0 102517
20:00−16з119861 0.0 102511